OBJECT B

Basic Information
Catalog Number:
59774
Catalog Name:
OBJECT B
International ID:
2024-092B
Orbit Center:
EARTH
Object Status:
In Orbit
Launch Date:
2024-05-16 UTC
Country:
俄罗斯(独联体) (CIS)
Orbital Information
Data Source: International Orbital Data AOE Orbital Data
Epoch Time: 2026-07-14T04:54:43+0800 2026-07-11T05:00:00+0800
Semi-major Axis: 6856.324km 6856.464km
Eccentricity: 0.0009849 0.0009863
Inclination: 97.652° 97.652°
Argument of Perigee: 91.272° 100.526°
RAAN: 324.720° 321.641°
Mean Anomaly: 268.964° 335.252°
Perigee: 471.434km 471.564km
Apogee: 484.94km 485.09km
Period: 94.167分钟 94.169分钟
Mean Motion: 15.292053 15.291586
Detailed Information
Launch Site:
PKMTR
Orbital Altitude:
LEO
Data Source:
AOE Working Group
Reference Frame:
TEME
Time System:
UTC
Epoch Type:
SGP4
2D Orbital Map
3D Orbital Map
Orbital Altitude Analysis
Orbital Inclination Analysis
Orbit Comprehensive Analysis Chart
View Comprehensive Chart